Time,TemperatureF,DewpointF,PressureIn,WindDirection,WindDirectionDegrees,WindSpeedMPH,WindSpeedGustMPH,Humidity,HourlyPrecipIn,Conditions,Clouds,dailyrainin,SolarRadiationWatts/m^2,SoftwareType,DateUTC
2014-10-02 00:01:00,53.8,48.4,30.20,WSW,244,10.0,10.0,82,0.00,,,0.00,0,WeatherCatV1.23B16,2014-10-02 07:01:00,
2014-10-02 00:06:00,53.7,48.3,30.20,WNW,296,3.0,4.0,82,0.00,,,0.00,0,WeatherCatV1.23B16,2014-10-02 07:06:00,
2014-10-02 00:11:00,53.7,48.7,30.20,West,277,1.0,5.0,83,0.00,,,0.00,0,WeatherCatV1.23B16,2014-10-02 07:11:00,
2014-10-02 00:16:00,53.8,48.4,30.19,West,265,0.0,9.0,82,0.00,,,0.00,0,WeatherCatV1.23B16,2014-10-02 07:16:00,
2014-10-02 00:21:00,53.8,48.4,30.19,West,269,2.0,5.0,82,0.00,,,0.00,0,WeatherCatV1.23B16,2014-10-02 07:21:00,
2014-10-02 00:26:00,53.9,48.5,30.19,WSW,257,0.0,5.0,82,0.00,,,0.00,0,WeatherCatV1.23B16,2014-10-02 07:26:00,
2014-10-02 00:30:00,53.8,48.1,30.19,WSW,258,1.0,3.0,81,0.00,,,0.00,0,WeatherCatV1.23B16,2014-10-02 07:30:00,
2014-10-02 00:35:00,53.8,48.1,30.19,WSW,245,5.0,5.0,81,0.00,,,0.00,0,WeatherCatV1.23B16,2014-10-02 07:35:00,
2014-10-02 00:40:00,53.7,48.0,30.19,West,269,2.0,5.0,81,0.00,,,0.00,0,WeatherCatV1.23B16,2014-10-02 07:40:00,
2014-10-02 00:45:00,53.6,47.9,30.19,West,265,2.0,8.0,81,0.00,,,0.00,0,WeatherCatV1.23B16,2014-10-02 07:45:00,
2014-10-02 00:50:00,53.6,47.9,30.19,WSW,254,4.0,12.0,81,0.00,,,0.00,0,WeatherCatV1.23B16,2014-10-02 07:50:00,
2014-10-02 00:55:00,53.5,47.8,30.19,WNW,296,0.0,6.0,81,0.00,,,0.00,0,WeatherCatV1.23B16,2014-10-02 07:55:00,
2014-10-02 01:00:00,53.6,47.9,30.19,SW,219,5.0,10.0,81,0.00,,,0.00,0,WeatherCatV1.23B16,2014-10-02 08:00:00,
2014-10-02 01:05:00,53.6,47.6,30.19,SW,232,5.0,5.0,80,0.00,,,0.00,0,WeatherCatV1.23B16,2014-10-02 08:05:00,
2014-10-02 01:10:00,53.6,47.9,30.19,West,267,5.0,5.0,81,0.00,,,0.00,0,WeatherCatV1.23B16,2014-10-02 08:10:00,
2014-10-02 01:15:00,53.6,47.6,30.19,West,263,0.0,7.0,80,0.00,,,0.00,0,WeatherCatV1.23B16,2014-10-02 08:15:00,
2014-10-02 01:20:00,53.5,47.8,30.19,West,263,0.0,4.0,81,0.00,,,0.00,0,WeatherCatV1.23B16,2014-10-02 08:20:00,
2014-10-02 01:25:00,53.3,47.6,30.19,SW,233,3.0,7.0,81,0.00,,,0.00,0,WeatherCatV1.23B16,2014-10-02 08:25:00,
2014-10-02 01:30:00,53.1,47.4,30.19,SSW,196,0.0,1.0,81,0.00,,,0.00,0,WeatherCatV1.23B16,2014-10-02 08:30:00,
2014-10-02 01:35:00,52.9,47.2,30.19,SSW,196,0.0,1.0,81,0.00,,,0.00,0,WeatherCatV1.23B16,2014-10-02 08:35:00,
2014-10-02 01:40:00,52.6,47.6,30.19,SSW,196,0.0,0.0,83,0.00,,,0.00,0,WeatherCatV1.23B16,2014-10-02 08:40:00,
2014-10-02 01:45:00,52.2,47.2,30.19,SSW,196,0.0,0.0,83,0.00,,,0.00,0,WeatherCatV1.23B16,2014-10-02 08:45:00,
2014-10-02 01:50:00,51.7,47.3,30.19,SW,236,2.0,4.0,85,0.00,,,0.00,0,WeatherCatV1.23B16,2014-10-02 08:50:00,
2014-10-02 01:55:00,51.3,47.2,30.19,SW,236,0.0,0.0,86,0.00,,,0.00,0,WeatherCatV1.23B16,2014-10-02 08:55:00,
2014-10-02 02:00:00,51.0,47.0,30.19,SW,236,0.0,0.0,86,0.00,,,0.00,0,WeatherCatV1.23B16,2014-10-02 09:00:00,
2014-10-02 02:05:00,50.7,47.0,30.19,SW,236,0.0,0.0,87,0.00,,,0.00,0,WeatherCatV1.23B16,2014-10-02 09:05:00,
2014-10-02 02:10:00,50.4,46.7,30.20,SW,236,0.0,0.0,87,0.00,,,0.00,0,WeatherCatV1.23B16,2014-10-02 09:10:00,
2014-10-02 02:15:00,50.1,46.7,30.20,SW,236,0.0,1.0,88,0.00,,,0.00,0,WeatherCatV1.23B16,2014-10-02 09:15:00,
2014-10-02 02:20:00,49.7,46.3,30.21,SW,236,0.0,0.0,88,0.00,,,0.00,0,WeatherCatV1.23B16,2014-10-02 09:20:00,
2014-10-02 02:25:00,49.3,46.2,30.21,SW,236,0.0,0.0,89,0.00,,,0.00,0,WeatherCatV1.23B16,2014-10-02 09:25:00,
2014-10-02 02:30:00,49.0,45.9,30.21,SW,236,0.0,0.0,89,0.00,,,0.00,0,WeatherCatV1.23B16,2014-10-02 09:30:00,
2014-10-02 02:35:00,48.6,45.8,30.21,SW,236,0.0,0.0,90,0.00,,,0.00,0,WeatherCatV1.23B16,2014-10-02 09:35:00,
2014-10-02 02:40:00,48.4,45.6,30.21,SW,236,0.0,0.0,90,0.00,,,0.00,0,WeatherCatV1.23B16,2014-10-02 09:40:00,
2014-10-02 02:45:00,48.4,45.9,30.21,SW,236,0.0,0.0,91,0.00,,,0.00,0,WeatherCatV1.23B16,2014-10-02 09:45:00,
2014-10-02 02:50:00,48.3,45.8,30.21,SW,227,1.0,1.0,91,0.00,,,0.00,0,WeatherCatV1.23B16,2014-10-02 09:50:00,
2014-10-02 02:55:00,48.2,45.7,30.21,SW,221,0.0,1.0,91,0.00,,,0.00,0,WeatherCatV1.23B16,2014-10-02 09:55:00,
2014-10-02 03:00:00,48.1,45.6,30.21,SW,221,0.0,0.0,91,0.00,,,0.00,0,WeatherCatV1.23B16,2014-10-02 10:00:00,
2014-10-02 03:05:00,48.1,45.6,30.21,SW,221,1.0,1.0,91,0.00,,,0.00,0,WeatherCatV1.23B16,2014-10-02 10:05:00,
2014-10-02 03:10:00,48.0,45.5,30.21,SW,221,0.0,0.0,91,0.00,,,0.00,0,WeatherCatV1.23B16,2014-10-02 10:10:00,
2014-10-02 03:15:00,47.8,45.3,30.22,SW,221,0.0,0.0,91,0.00,,,0.00,0,WeatherCatV1.23B16,2014-10-02 10:15:00,
2014-10-02 03:20:00,47.6,45.4,30.22,SW,221,0.0,0.0,92,0.00,,,0.00,0,WeatherCatV1.23B16,2014-10-02 10:20:00,
2014-10-02 03:25:00,47.4,45.2,30.21,SW,221,0.0,0.0,92,0.00,,,0.00,0,WeatherCatV1.23B16,2014-10-02 10:25:00,
2014-10-02 03:30:00,47.1,44.9,30.21,SW,221,0.0,0.0,92,0.00,,,0.00,0,WeatherCatV1.23B16,2014-10-02 10:30:00,
2014-10-02 03:35:00,46.9,44.7,30.21,SW,221,0.0,0.0,92,0.00,,,0.00,0,WeatherCatV1.23B16,2014-10-02 10:35:00,
2014-10-02 03:40:00,46.7,44.5,30.21,SW,221,0.0,0.0,92,0.00,,,0.00,0,WeatherCatV1.23B16,2014-10-02 10:40:00,
2014-10-02 03:45:00,46.6,44.7,30.21,SW,221,0.0,1.0,93,0.00,,,0.00,0,WeatherCatV1.23B16,2014-10-02 10:45:00,
2014-10-02 03:50:00,46.5,44.6,30.22,SW,221,0.0,0.0,93,0.00,,,0.00,0,WeatherCatV1.23B16,2014-10-02 10:50:00,
2014-10-02 03:55:00,46.4,44.8,30.22,SW,221,0.0,0.0,94,0.00,,,0.00,0,WeatherCatV1.23B16,2014-10-02 10:55:00,
2014-10-02 04:00:00,46.4,44.8,30.22,SW,221,0.0,0.0,94,0.00,,,0.00,0,WeatherCatV1.23B16,2014-10-02 11:00:00,
2014-10-02 04:05:00,46.3,44.4,30.22,SW,221,0.0,0.0,93,0.00,,,0.00,0,WeatherCatV1.23B16,2014-10-02 11:05:00,
2014-10-02 04:10:00,46.1,44.2,30.22,SW,221,0.0,0.0,93,0.00,,,0.00,0,WeatherCatV1.23B16,2014-10-02 11:10:00,
2014-10-02 04:15:00,46.0,44.1,30.22,SW,221,0.0,0.0,93,0.00,,,0.00,0,WeatherCatV1.23B16,2014-10-02 11:15:00,
2014-10-02 04:20:00,45.9,44.3,30.22,SW,221,0.0,0.0,94,0.00,,,0.00,0,WeatherCatV1.23B16,2014-10-02 11:20:00,
2014-10-02 04:25:00,45.8,44.2,30.22,SW,221,0.0,0.0,94,0.00,,,0.00,0,WeatherCatV1.23B16,2014-10-02 11:25:00,
2014-10-02 04:26:00,45.8,44.2,30.22,SW,221,0.0,0.0,94,0.00,,,0.00,0,WeatherCatV1.23B16,2014-10-02 11:26:00,
2014-10-02 04:31:00,45.7,44.1,30.22,SW,221,0.0,0.0,94,0.00,,,0.00,0,WeatherCatV1.23B16,2014-10-02 11:31:00,
2014-10-02 04:36:00,45.8,44.2,30.22,SW,221,0.0,0.0,94,0.00,,,0.00,0,WeatherCatV1.23B16,2014-10-02 11:36:00,
2014-10-02 04:41:00,45.8,44.2,30.22,SW,221,0.0,0.0,94,0.00,,,0.00,0,WeatherCatV1.23B16,2014-10-02 11:41:00,
2014-10-02 04:46:00,45.8,44.2,30.22,SW,221,0.0,0.0,94,0.00,,,0.00,0,WeatherCatV1.23B16,2014-10-02 11:46:00,
2014-10-02 04:51:00,45.7,44.1,30.23,SW,221,0.0,0.0,94,0.00,,,0.00,0,WeatherCatV1.23B16,2014-10-02 11:51:00,
2014-10-02 04:56:00,45.7,44.3,30.22,SW,221,0.0,0.0,95,0.00,,,0.00,0,WeatherCatV1.23B16,2014-10-02 11:56:00,
2014-10-02 05:01:00,45.6,44.2,30.23,SW,221,0.0,0.0,95,0.00,,,0.00,0,WeatherCatV1.23B16,2014-10-02 12:01:00,
2014-10-02 05:06:00,45.6,44.2,30.23,SW,221,0.0,0.0,95,0.00,,,0.00,0,WeatherCatV1.23B16,2014-10-02 12:06:00,
2014-10-02 05:08:00,45.6,44.2,30.23,SW,221,0.0,0.0,95,0.00,,,0.00,0,WeatherCatV1.23B16,2014-10-02 12:08:00,
2014-10-02 05:13:00,45.7,44.3,30.23,SW,221,0.0,0.0,95,0.00,,,0.00,0,WeatherCatV1.23B16,2014-10-02 12:13:00,
2014-10-02 05:18:00,45.6,44.2,30.23,SW,221,0.0,0.0,95,0.00,,,0.00,0,WeatherCatV1.23B16,2014-10-02 12:18:00,
2014-10-02 05:23:00,45.5,44.2,30.24,SW,221,0.0,0.0,95,0.00,,,0.00,0,WeatherCatV1.23B16,2014-10-02 12:23:00,
2014-10-02 05:28:00,45.4,44.0,30.24,SW,221,0.0,0.0,95,0.00,,,0.00,0,WeatherCatV1.23B16,2014-10-02 12:28:00,
2014-10-02 05:33:00,45.3,44.0,30.24,SW,221,0.0,0.0,95,0.00,,,0.00,0,WeatherCatV1.23B16,2014-10-02 12:33:00,
2014-10-02 05:38:00,45.2,43.8,30.24,SW,221,0.0,0.0,95,0.00,,,0.00,0,WeatherCatV1.23B16,2014-10-02 12:38:00,
2014-10-02 05:43:00,45.1,43.8,30.24,SW,221,0.0,0.0,95,0.00,,,0.00,0,WeatherCatV1.23B16,2014-10-02 12:43:00,
2014-10-02 05:48:00,45.0,43.7,30.24,SW,221,0.0,0.0,95,0.00,,,0.00,0,WeatherCatV1.23B16,2014-10-02 12:48:00,
2014-10-02 05:53:00,45.0,43.7,30.24,SW,221,0.0,0.0,95,0.00,,,0.00,0,WeatherCatV1.23B16,2014-10-02 12:53:00,
2014-10-02 05:58:00,45.0,43.7,30.24,SW,221,0.0,0.0,95,0.00,,,0.00,0,WeatherCatV1.23B16,2014-10-02 12:58:00,
2014-10-02 06:03:00,44.9,43.5,30.24,SW,221,0.0,0.0,95,0.00,,,0.00,0,WeatherCatV1.23B16,2014-10-02 13:03:00,
2014-10-02 06:08:00,44.9,43.5,30.24,SW,221,0.0,0.0,95,0.00,,,0.00,0,WeatherCatV1.23B16,2014-10-02 13:08:00,
2014-10-02 06:13:00,44.9,43.5,30.24,SW,221,0.0,0.0,95,0.00,,,0.00,0,WeatherCatV1.23B16,2014-10-02 13:13:00,
2014-10-02 06:18:00,44.9,43.5,30.25,SW,221,0.0,0.0,95,0.00,,,0.00,0,WeatherCatV1.23B16,2014-10-02 13:18:00,
2014-10-02 06:23:00,44.8,43.5,30.24,SW,221,0.0,0.0,95,0.00,,,0.00,0,WeatherCatV1.23B16,2014-10-02 13:23:00,
2014-10-02 06:25:00,44.8,43.5,30.25,SW,221,0.0,0.0,95,0.00,,,0.00,0,WeatherCatV1.23B16,2014-10-02 13:25:00,
2014-10-02 06:30:00,44.7,43.4,30.25,SW,221,0.0,0.0,95,0.00,,,0.00,0,WeatherCatV1.23B16,2014-10-02 13:30:00,
2014-10-02 06:35:00,44.6,43.3,30.25,SW,221,0.0,0.0,95,0.00,,,0.00,0,WeatherCatV1.23B16,2014-10-02 13:35:00,
2014-10-02 06:40:00,44.6,43.3,30.25,SW,221,0.0,0.0,95,0.00,,,0.00,0,WeatherCatV1.23B16,2014-10-02 13:40:00,
2014-10-02 06:45:00,44.7,43.4,30.25,SW,221,0.0,0.0,95,0.00,,,0.00,0,WeatherCatV1.23B16,2014-10-02 13:45:00,
2014-10-02 06:50:00,44.7,43.6,30.25,SW,221,0.0,0.0,96,0.00,,,0.00,0,WeatherCatV1.23B16,2014-10-02 13:50:00,
2014-10-02 06:55:00,44.9,43.8,30.25,SW,221,0.0,0.0,96,0.00,,,0.00,0,WeatherCatV1.23B16,2014-10-02 13:55:00,
2014-10-02 07:00:00,45.0,43.9,30.25,SW,221,0.0,0.0,96,0.00,,,0.00,0,WeatherCatV1.23B16,2014-10-02 14:00:00,
2014-10-02 07:05:00,45.0,43.9,30.25,SW,221,0.0,0.0,96,0.00,,,0.00,0,WeatherCatV1.23B16,2014-10-02 14:05:00,
2014-10-02 07:10:00,45.0,43.9,30.25,SW,221,0.0,0.0,96,0.00,,,0.00,0,WeatherCatV1.23B16,2014-10-02 14:10:00,
2014-10-02 07:15:00,45.0,43.9,30.25,SW,221,0.0,0.0,96,0.00,,,0.00,0,WeatherCatV1.23B16,2014-10-02 14:15:00,
2014-10-02 07:20:00,45.0,43.9,30.25,SW,221,0.0,0.0,96,0.00,,,0.00,5,WeatherCatV1.23B16,2014-10-02 14:20:00,
2014-10-02 07:25:00,45.0,43.9,30.25,SW,221,0.0,0.0,96,0.00,,,0.00,9,WeatherCatV1.23B16,2014-10-02 14:25:00,
2014-10-02 07:30:00,44.9,43.8,30.25,SW,221,0.0,0.0,96,0.00,,,0.00,12,WeatherCatV1.23B16,2014-10-02 14:30:00,
2014-10-02 07:35:00,44.9,43.8,30.25,SW,221,0.0,0.0,96,0.00,,,0.00,14,WeatherCatV1.23B16,2014-10-02 14:35:00,
2014-10-02 07:40:00,44.9,43.8,30.25,SW,221,0.0,0.0,96,0.00,,,0.00,18,WeatherCatV1.23B16,2014-10-02 14:40:00,
2014-10-02 07:45:00,45.0,43.9,30.26,SW,221,0.0,0.0,96,0.00,,,0.00,21,WeatherCatV1.23B16,2014-10-02 14:45:00,
2014-10-02 07:50:00,44.9,43.8,30.26,SW,221,0.0,0.0,96,0.00,,,0.00,25,WeatherCatV1.23B16,2014-10-02 14:50:00,
2014-10-02 07:55:00,44.9,43.8,30.26,SW,221,0.0,0.0,96,0.00,,,0.00,32,WeatherCatV1.23B16,2014-10-02 14:55:00,
2014-10-02 08:00:00,45.0,43.9,30.26,SW,221,0.0,0.0,96,0.00,,,0.00,35,WeatherCatV1.23B16,2014-10-02 15:00:00,
2014-10-02 08:05:00,45.2,44.1,30.26,SW,221,0.0,0.0,96,0.00,,,0.00,39,WeatherCatV1.23B16,2014-10-02 15:05:00,
2014-10-02 08:10:00,45.4,44.3,30.27,SW,221,0.0,0.0,96,0.00,,,0.00,54,WeatherCatV1.23B16,2014-10-02 15:10:00,
2014-10-02 08:15:00,45.8,44.7,30.26,SW,218,1.0,2.0,96,0.00,,,0.00,100,WeatherCatV1.23B16,2014-10-02 15:15:00,
2014-10-02 08:20:00,46.4,45.6,30.27,SW,217,0.0,0.0,97,0.00,,,0.00,107,WeatherCatV1.23B16,2014-10-02 15:20:00,
2014-10-02 08:22:00,46.7,45.9,30.27,SW,217,0.0,2.0,97,0.00,,,0.00,109,WeatherCatV1.23B16,2014-10-02 15:22:00,
2014-10-02 08:27:00,47.5,46.7,30.27,SW,217,0.0,1.0,97,0.00,,,0.00,123,WeatherCatV1.23B16,2014-10-02 15:27:00,
2014-10-02 08:32:00,48.1,47.3,30.27,SSW,213,0.0,2.0,97,0.00,,,0.00,130,WeatherCatV1.23B16,2014-10-02 15:32:00,
2014-10-02 08:37:00,48.7,47.6,30.28,SSW,213,0.0,0.0,96,0.00,,,0.00,141,WeatherCatV1.23B16,2014-10-02 15:37:00,
2014-10-02 08:42:00,49.3,47.9,30.28,SSW,213,0.0,0.0,95,0.00,,,0.00,155,WeatherCatV1.23B16,2014-10-02 15:42:00,
2014-10-02 08:47:00,49.9,48.2,30.28,SSW,213,0.0,0.0,94,0.00,,,0.00,167,WeatherCatV1.23B16,2014-10-02 15:47:00,
2014-10-02 08:52:00,50.6,48.7,30.28,SSW,213,0.0,1.0,93,0.00,,,0.00,183,WeatherCatV1.23B16,2014-10-02 15:52:00,
2014-10-02 08:57:00,51.3,49.3,30.28,SSW,213,0.0,0.0,93,0.00,,,0.00,195,WeatherCatV1.23B16,2014-10-02 15:57:00,
2014-10-02 09:02:00,52.0,49.8,30.28,SSW,213,1.0,2.0,92,0.00,,,0.00,207,WeatherCatV1.23B16,2014-10-02 16:02:00,
2014-10-02 09:07:00,52.8,50.2,30.28,SSW,213,0.0,0.0,91,0.00,,,0.00,220,WeatherCatV1.23B16,2014-10-02 16:07:00,
2014-10-02 09:12:00,53.4,50.5,30.28,SSW,213,2.0,2.0,90,0.00,,,0.00,234,WeatherCatV1.23B16,2014-10-02 16:12:00,
2014-10-02 09:17:00,54.0,50.8,30.29,SSW,211,0.0,0.0,89,0.00,,,0.00,250,WeatherCatV1.23B16,2014-10-02 16:17:00,
2014-10-02 09:22:00,54.4,50.9,30.29,SSW,203,1.0,2.0,88,0.00,,,0.00,264,WeatherCatV1.23B16,2014-10-02 16:22:00,
2014-10-02 09:27:00,54.9,50.5,30.29,SSE,158,0.0,4.0,85,0.00,,,0.00,281,WeatherCatV1.23B16,2014-10-02 16:27:00,
2014-10-02 09:32:00,55.3,50.9,30.29,SSE,157,2.0,3.0,85,0.00,,,0.00,309,WeatherCatV1.23B16,2014-10-02 16:32:00,
2014-10-02 09:37:00,55.8,51.4,30.29,SSE,158,3.0,3.0,85,0.00,,,0.00,323,WeatherCatV1.23B16,2014-10-02 16:37:00,
2014-10-02 09:42:00,56.3,51.2,30.29,ESE,103,3.0,3.0,83,0.00,,,0.00,318,WeatherCatV1.23B16,2014-10-02 16:42:00,
2014-10-02 09:47:00,56.7,51.3,30.29,East,88,0.0,3.0,82,0.00,,,0.00,346,WeatherCatV1.23B16,2014-10-02 16:47:00,
2014-10-02 09:52:00,57.1,51.0,30.30,East,98,3.0,4.0,80,0.00,,,0.00,413,WeatherCatV1.23B16,2014-10-02 16:52:00,